Temp
-8 -8 -7 -7 -6 -6 -6 -6 -6 -6 -8 -9 -9 -9 -9 -9 -7 -6 -7 -7 -7 -8 -8 -8 -7 -7 -6 -7 -6 -6 -6 -6 -6 -6 -6 -6 -6 -5 -5 -5 -5 -5 -6 -6 -6 -6 -6 -6 -6
-9 -8 -8 -7 -7 -6 -6 -6 -7 -7 -7 -8 -9 -9 -9 -8 -7 -7 -7 -7 -8 -8 -8 -8 -8 -7 -7 -7 -7 -7 -7 -7 -7 -7 -7 -6 -6 -6 -5 -5 -5 -6 -6 -6 -7 -7 -7 -7 -7
-10 -10 -8 -7 -7 -6 -6 -6 -7 -7 -7 -7 -9 -9 -9 -8 -8 -7 -8 -6 -8 -9 -8 -8 -8 -8 -7 -7 -7 -7 -7 -7 -7 -7 -6 -6 -6 -6 -6 -6 -6 -6 -7 -7 -7 -7 -7 -7 -7
-10 -10 -9 -8 -7 -7 -7 -7 -7 -8 -7 -7 -8 -9 -9 -8 -8 -8 -8 -7 -9 -9 -8 -8 -8 -8 -8 -8 -7 -7 -7 -7 -7 -7 -7 -7 -7 -7 -6 -7 -6 -6 -7 -7 -7 -7 -8 -7 -8
-11 -10 -9 -9 -8 -8 -8 -8 -7 -8 -8 -8 -9 -9 -9 -9 -8 -8 -7 -9 -9 -9 -9 -8 -8 -8 -8 -8 -8 -8 -8 -8 -8 -8 -7 -7 -7 -7 -7 -7 -7 -7 -7 -7 -8 -8 -8 -8 -8
-11 -10 -9 -9 -10 -9 -8 -8 -7 -8 -8 -8 -9 -9 -9 -8 -8 -8 -7 -9 -9 -9 -9 -8 -8 -8 -9 -8 -8 -8 -8 -8 -8 -8 -8 -8 -8 -8 -8 -8 -8 -8 -8 -8 -8 -8 -8 -9 -9
-12 -12 -10 -9 -11 -11 -9 -8 -8 -8 -8 -9 -9 -8 -8 -8 -8 -8 -7 -9 -9 -9 -9 -8 -9 -9 -9 -9 -8 -8 -8 -8 -8 -8 -8 -8 -8 -8 -8 -8 -8 -8 -9 -8 -9 -9 -8 -9 -9
-12 -11 -10 -9 -11 -12 -11 -9 -8 -8 -9 -9 -9 -9 -8 -8 -8 -8 -8 -10 -9 -9 -9 -9 -9 -9 -9 -9 -8 -8 -8 -8 -8 -9 -8 -8 -8 -9 -9 -9 -9 -9 -9 -9 -9 -9 -10 -9 -10
-12 -12 -10 -10 -12 -12 -12 -11 -9 -8 -9 -10 -9 -9 -9 -9 -9 -8 -8 -9 -9 -9 -9 -9 -9 -9 -9 -9 -9 -8 -8 -8 -8 -9 -9 -9 -9 -9 -9 -9 -9 -9 -10 -10 -10 -10 -10 -10 -11
-12 -12 -11 -12 -12 -12 -11 -11 -10 -9 -8 -10 -10 -10 -9 -9 -9 -8 -7 -9 -9 -10 -9 -9 -9 -9 -9 -9 -9 -8 -8 -8 -8 -9 -9 -9 -9 -9 -9 -9 -10 -10 -10 -10 -10 -10 -10 -11 -11
-12 -12 -12 -12 -12 -12 -12 -11 -11 -10 -10 -10 -10 -10 -10 -10 -9 -8 -8 -9 -9 -10 -9 -9 -9 -10 -10 -9 -9 -9 -8 -9 -9 -9 -9 -9 -9 -9 -9 -10 -10 -10 -11 -11 -11 -11 -11 -11 -11
-13 -12 -12 -12 -13 -12 -12 -12 -11 -10 -10 -11 -11 -10 -10 -9 -9 -9 -8 -8 -9 -9 -9 -9 -10 -10 -9 -9 -9 -9 -9 -9 -9 -8 -9 -9 -9 -9 -10 -10 -10 -11 -11 -11 -11 -11 -11 -11 -12
-13 -13 -12 -12 -12 -13 -13 -11 -11 -10 -10 -11 -11 -11 -10 -10 -10 -9 -9 -8 -8 -9 -9 -9 -9 -9 -9 -9 -9 -9 -9 -10 -9 -9 -9 -9 -9 -9 -9 -10 -10 -11 -11 -11 -11 -11 -11 -11 -12
-13 -13 -12 -12 -12 -13 -14 -13 -11 -11 -11 -12 -12 -11 -11 -10 -10 -9 -9 -8 -8 -8 -8 -9 -9 -9 -8 -9 -9 -10 -9 -9 -10 -10 -9 -11 -10 -10 -10 -10 -11 -11 -11 -11 -11 -11 -11 -11 -11
-13 -13 -13 -13 -12 -12 -12 -11 -10 -12 -12 -12 -12 -12 -11 -11 -10 -10 -10 -9 -10 -8 -8 -9 -9 -10 -10 -10 -9 -9 -9 -9 -9 -10 -9 -10 -10 -10 -10 -10 -11 -11 -11 -11 -11 -11 -11 -11 -11
-14 -13 -13 -12 -12 -13 -12 -11 -11 -12 -12 -12 -12 -12 -12 -12 -11 -10 -11 -10 -9 -9 -9 -9 -9 -9 -10 -10 -9 -9 -9 -10 -10 -9 -10 -10 -10 -10 -10 -10 -10 -10 -11 -11 -11 -11 -11 -11 -11
-14 -13 -13 -13 -13 -12 -12 -11 -11 -12 -12 -12 -12 -11 -12 -12 -12 -12 -11 -11 -10 -9 -10 -10 -10 -10 -10 -10 -9 -9 -9 -9 -9 -9 -9 -10 -10 -10 -11 -10 -11 -10 -11 -11 -11 -11 -11 -11 -11
-14 -13 -13 -13 -13 -13 -12 -11 -11 -11 -12 -11 -12 -12 -11 -12 -13 -13 -12 -12 -11 -10 -10 -9 -10 -10 -10 -10 -10 -10 -9 -9 -10 -10 -10 -9 -9 -10 -11 -11 -10 -11 -12 -12 -11 -10 -11 -11 -11
-14 -13 -13 -13 -13 -13 -13 -12 -12 -12 -12 -12 -12 -12 -11 -11 -12 -12 -13 -12 -12 -11 -11 -10 -10 -10 -11 -10 -10 -10 -10 -10 -10 -9 -9 -9 -10 -10 -11 -11 -10 -12 -12 -12 -11 -10 -10 -10 -10
-14 -14 -13 -13 -13 -13 -12 -12 -12 -12 -12 -12 -12 -12 -12 -12 -12 -12 -12 -13 -12 -12 -12 -11 -11 -10 -11 -11 -10 -10 -10 -10 -10 -10 -10 -10 -11 -11 -11 -10 -11 -12 -12 -11 -10 -10 -10 -10 -10
-15 -14 -14 -14 -14 -13 -13 -12 -12 -12 -12 -12 -12 -12 -12 -12 -12 -12 -12 -12 -13 -13 -12 -12 -12 -12 -11 -11 -11 -10 -10 -10 -10 -10 -10 -11 -11 -11 -11 -10 -11 -12 -11 -11 -10 -10 -9 -10 -9
-15 -14 -14 -14 -14 -13 -13 -12 -12 -12 -12 -12 -12 -12 -12 -12 -12 -12 -12 -12 -12 -12 -13 -12 -12 -12 -12 -11 -11 -10 -10 -10 -10 -11 -10 -11 -11 -10 -11 -11 -11 -12 -11 -10 -10 -9 -10 -10 -10
-15 -15 -15 -15 -15 -14 -14 -14 -12 -12 -13 -13 -12 -12 -12 -12 -12 -12 -12 -12 -12 -12 -12 -12 -12 -12 -13 -12 -12 -11 -11 -11 -10 -10 -11 -11 -11 -11 -11 -12 -12 -12 -10 -10 -10 -10 -10 -10 -10
-17 -17 -17 -17 -16 -15 -16 -16 -12 -13 -13 -13 -13 -13 -12 -12 -12 -12 -12 -12 -12 -12 -11 -12 -12 -11 -12 -12 -11 -10 -10 -10 -10 -10 -11 -11 -12 -12 -11 -11 -11 -11 -10 -10 -9 -10 -10 -10 -10
-18 -18 -18 -17 -17 -17 -17 -17 -14 -14 -14 -13 -13 -13 -13 -13 -12 -12 -12 -12 -12 -12 -12 -12 -12 -11 -11 -12 -12 -11 -11 -11 -11 -11 -11 -11 -11 -12 -11 -11 -11 -10 -10 -10 -9 -10 -10 -10 -11
-18 -18 -18 -18 -18 -18 -18 -17 -17 -17 -16 -16 -14 -14 -13 -14 -13 -12 -12 -12 -12 -12 -12 -12 -12 -12 -12 -11 -11 -10 -10 -10 -11 -12 -11 -11 -11 -11 -11 -11 -11 -10 -10 -9 -10 -10 -11 -11 -12
-18 -19 -18 -18 -18 -18 -17 -18 -18 -18 -19 -19 -19 -18 -16 -15 -14 -14 -13 -12 -12 -12 -12 -12 -12 -11 -11 -11 -10 -10 -11 -10 -11 -12 -12 -11 -11 -11 -11 -11 -10 -10 -10 -10 -10 -11 -11 -11 -12
-18 -18 -19 -19 -18 -18 -17 -17 -17 -18 -19 -20 -20 -21 -21 -20 -18 -15 -14 -13 -12 -11 -12 -11 -12 -11 -11 -10 -10 -10 -10 -10 -11 -11 -11 -11 -10 -11 -11 -11 -10 -10 -10 -10 -11 -11 -11 -11 -12
-19 -19 -19 -19 -19 -19 -18 -16 -18 -19 -20 -21 -21 -21 -21 -21 -20 -18 -15 -13 -12 -11 -11 -11 -11 -11 -11 -11 -11 -10 -10 -10 -11 -11 -11 -11 -11 -11 -11 -10 -10 -10 -10 -11 -11 -11 -11 -12 -11
-19 -19 -20 -19 -19 -19 -20 -17 -20 -20 -21 -22 -22 -22 -21 -21 -20 -20 -18 -14 -14 -12 -11 -11 -11 -11 -11 -11 -11 -11 -11 -11 -11 -11 -11 -11 -11 -11 -11 -10 -10 -10 -10 -11 -11 -11 -11 -11 -11
Height
5834 5840 5844 5846 5852 5857 5864 5869 5870 5870 5868 5868 5870 5871 5873 5874 5879 5886 5886 5887 5887 5890 5892 5892 5894 5895 5895 5895 5893 5893 5893 5894 5894 5894 5894 5894 5893 5892 5891 5890 5888 5887 5884 5883 5881 5880 5879 5877 5875
5828 5833 5838 5841 5844 5853 5862 5864 5864 5862 5861 5864 5867 5865 5865 5875 5879 5881 5884 5885 5885 5889 5892 5892 5894 5895 5895 5895 5894 5894 5894 5894 5894 5894 5893 5893 5893 5891 5890 5889 5887 5886 5884 5881 5880 5878 5876 5875 5873
5820 5826 5830 5833 5839 5851 5858 5857 5856 5856 5858 5859 5857 5860 5864 5872 5874 5878 5880 5881 5883 5887 5890 5891 5892 5894 5895 5895 5895 5894 5894 5894 5895 5895 5893 5892 5890 5890 5889 5888 5887 5885 5882 5880 5877 5875 5873 5871 5870
5813 5817 5822 5826 5836 5844 5847 5848 5849 5851 5852 5851 5852 5855 5862 5868 5871 5874 5876 5878 5881 5885 5887 5889 5890 5892 5894 5895 5894 5894 5893 5893 5894 5893 5892 5891 5890 5888 5888 5887 5885 5883 5880 5878 5876 5875 5872 5870 5867
5805 5809 5814 5820 5829 5836 5837 5839 5842 5846 5846 5845 5848 5853 5861 5866 5870 5871 5873 5874 5879 5882 5884 5885 5886 5889 5892 5893 5893 5892 5892 5892 5892 5891 5890 5889 5889 5887 5886 5885 5883 5881 5880 5877 5875 5873 5871 5869 5866
5798 5801 5806 5815 5821 5825 5827 5830 5834 5839 5841 5842 5845 5853 5858 5858 5863 5866 5868 5872 5875 5878 5880 5881 5883 5886 5889 5891 5891 5891 5891 5890 5890 5889 5888 5888 5887 5886 5884 5883 5882 5879 5878 5876 5874 5871 5869 5866 5864
5790 5792 5797 5807 5811 5814 5819 5822 5826 5831 5835 5836 5839 5848 5851 5853 5856 5861 5865 5867 5870 5873 5877 5879 5880 5881 5884 5887 5889 5890 5889 5889 5889 5888 5887 5886 5885 5883 5882 5880 5879 5878 5876 5874 5871 5870 5868 5864 5861
5782 5784 5787 5796 5803 5807 5811 5817 5821 5823 5828 5829 5832 5840 5845 5850 5852 5857 5860 5863 5865 5868 5872 5875 5876 5878 5880 5884 5886 5887 5888 5888 5887 5886 5885 5884 5883 5882 5880 5879 5878 5876 5875 5873 5870 5867 5865 5862 5859
5773 5775 5780 5787 5791 5794 5799 5808 5814 5818 5821 5823 5826 5831 5837 5842 5846 5849 5854 5857 5861 5864 5867 5870 5872 5874 5876 5879 5882 5884 5886 5886 5885 5884 5882 5881 5881 5879 5879 5877 5876 5875 5873 5871 5868 5866 5863 5860 5857
5764 5770 5772 5778 5779 5781 5789 5797 5804 5812 5818 5816 5820 5825 5829 5834 5839 5843 5846 5852 5856 5858 5862 5865 5868 5870 5872 5875 5878 5881 5883 5884 5883 5883 5881 5880 5879 5878 5877 5877 5874 5873 5871 5869 5866 5864 5861 5858 5855
5757 5762 5765 5768 5770 5775 5784 5790 5794 5802 5811 5811 5812 5819 5822 5827 5832 5838 5840 5844 5851 5854 5857 5860 5862 5865 5869 5871 5873 5876 5879 5881 5880 5880 5879 5878 5876 5875 5875 5874 5872 5871 5869 5867 5865 5862 5859 5855 5852
5750 5754 5755 5759 5763 5768 5773 5782 5786 5795 5803 5805 5805 5811 5816 5821 5827 5830 5837 5840 5843 5845 5848 5851 5857 5859 5864 5866 5869 5870 5873 5875 5876 5877 5876 5875 5874 5872 5871 5871 5871 5868 5867 5864 5862 5859 5856 5852 5848
5740 5744 5747 5752 5759 5761 5766 5772 5780 5789 5790 5796 5800 5803 5808 5813 5818 5825 5829 5832 5835 5837 5841 5846 5848 5853 5857 5859 5863 5865 5867 5868 5870 5870 5871 5871 5869 5869 5868 5867 5867 5865 5863 5861 5858 5856 5852 5849 5844
5734 5737 5739 5744 5750 5755 5758 5764 5771 5780 5780 5785 5792 5794 5799 5805 5808 5816 5820 5825 5830 5830 5833 5838 5841 5845 5849 5852 5856 5858 5861 5863 5864 5865 5865 5865 5865 5866 5865 5864 5862 5860 5859 5856 5854 5852 5847 5844 5840
5727 5730 5732 5737 5740 5745 5748 5759 5763 5768 5763 5770 5780 5785 5789 5793 5797 5802 5809 5813 5817 5821 5826 5829 5831 5836 5841 5846 5850 5851 5854 5856 5856 5854 5859 5858 5859 5861 5861 5859 5858 5855 5854 5851 5849 5846 5842 5838 5834
5720 5722 5724 5728 5732 5735 5741 5753 5752 5754 5755 5763 5767 5773 5778 5782 5787 5793 5796 5803 5808 5811 5818 5820 5824 5828 5833 5837 5842 5844 5846 5846 5850 5846 5850 5850 5850 5853 5854 5854 5852 5850 5848 5846 5842 5839 5835 5832 5827
5712 5714 5718 5721 5723 5727 5733 5738 5741 5744 5748 5752 5755 5762 5766 5771 5777 5781 5786 5792 5797 5801 5806 5811 5816 5818 5823 5828 5831 5829 5837 5840 5842 5842 5839 5840 5843 5845 5846 5848 5847 5844 5841 5838 5835 5832 5828 5826 5820
5705 5707 5709 5712 5713 5718 5723 5727 5731 5736 5739 5744 5746 5749 5756 5760 5765 5771 5775 5781 5787 5792 5795 5800 5806 5810 5813 5817 5821 5824 5827 5833 5836 5838 5837 5838 5833 5837 5838 5841 5841 5837 5834 5831 5827 5825 5822 5818 5813
5698 5699 5701 5703 5704 5707 5711 5715 5718 5726 5730 5733 5737 5741 5745 5751 5756 5760 5765 5769 5774 5781 5787 5791 5797 5800 5803 5806 5813 5817 5822 5825 5829 5830 5832 5831 5832 5831 5831 5832 5832 5830 5827 5822 5820 5817 5815 5812 5806
5690 5691 5693 5695 5696 5696 5698 5704 5709 5713 5718 5722 5726 5731 5736 5739 5743 5747 5752 5757 5763 5770 5774 5780 5785 5789 5794 5797 5803 5806 5811 5814 5817 5822 5824 5826 5827 5825 5822 5824 5825 5821 5817 5815 5813 5810 5808 5805 5799
5683 5683 5684 5685 5687 5688 5688 5695 5701 5701 5706 5709 5713 5717 5723 5728 5730 5733 5738 5745 5753 5757 5763 5768 5772 5776 5781 5786 5791 5795 5798 5803 5807 5812 5817 5818 5817 5814 5813 5817 5815 5811 5808 5806 5804 5802 5800 5797 5793
5676 5676 5676 5677 5677 5679 5679 5677 5689 5690 5693 5696 5698 5701 5707 5712 5717 5720 5724 5729 5737 5742 5749 5753 5758 5763 5769 5775 5778 5782 5788 5793 5798 5802 5806 5807 5806 5805 5805 5806 5804 5801 5800 5798 5796 5795 5793 5789 5787
5667 5666 5665 5665 5664 5667 5668 5664 5675 5680 5680 5680 5684 5687 5690 5694 5701 5708 5712 5717 5721 5726 5733 5741 5746 5752 5756 5761 5767 5773 5776 5782 5789 5794 5796 5797 5796 5795 5796 5795 5793 5793 5792 5790 5790 5788 5785 5781 5781
5657 5656 5656 5655 5654 5654 5653 5649 5667 5663 5660 5662 5667 5671 5675 5679 5684 5690 5696 5702 5708 5713 5719 5725 5734 5741 5746 5751 5755 5760 5767 5772 5778 5782 5784 5785 5784 5784 5785 5785 5785 5785 5784 5783 5782 5781 5777 5775 5775
5650 5649 5646 5646 5645 5646 5640 5634 5650 5645 5643 5644 5648 5652 5656 5660 5664 5669 5677 5685 5691 5699 5704 5711 5718 5729 5733 5739 5746 5750 5754 5759 5765 5769 5773 5774 5774 5774 5776 5776 5777 5778 5776 5775 5775 5773 5771 5770 5768
5643 5641 5639 5636 5635 5635 5633 5629 5633 5630 5625 5626 5626 5628 5635 5640 5645 5652 5658 5668 5678 5684 5692 5699 5706 5716 5722 5727 5734 5740 5744 5747 5754 5758 5762 5764 5763 5764 5766 5768 5769 5768 5768 5768 5767 5766 5765 5764 5761
5636 5635 5634 5630 5627 5623 5623 5621 5624 5622 5618 5610 5610 5610 5611 5617 5624 5630 5639 5650 5661 5671 5678 5686 5695 5706 5714 5720 5725 5729 5733 5737 5743 5749 5750 5753 5756 5757 5758 5759 5760 5760 5761 5761 5760 5760 5758 5756 5755
5629 5628 5626 5622 5619 5614 5612 5609 5607 5609 5607 5602 5601 5600 5599 5598 5600 5609 5619 5629 5641 5654 5665 5674 5683 5693 5702 5709 5715 5720 5724 5728 5733 5738 5741 5745 5748 5751 5750 5751 5752 5753 5754 5753 5753 5752 5751 5750 5749
5624 5621 5618 5615 5611 5605 5600 5599 5595 5595 5593 5590 5589 5587 5586 5586 5587 5593 5602 5612 5623 5635 5649 5660 5670 5680 5689 5696 5703 5708 5713 5718 5722 5727 5731 5735 5740 5742 5743 5744 5745 5745 5746 5745 5746 5745 5744 5743 5742
5618 5615 5612 5607 5605 5597 5591 5587 5586 5586 5583 5578 5575 5573 5572 5575 5580 5583 5584 5595 5605 5617 5631 5645 5656 5667 5676 5683 5691 5698 5702 5706 5711 5717 5722 5727 5731 5734 5735 5736 5737 5737 5737 5737 5738 5738 5737 5737 5736
Wind_Speed
38 40 40 41 42 39 32 26 24 27 29 35 34 29 28 27 21 13 12 11 7 3 6 12 6 1 3 6 8 9 10 9 8 9 10 11 12 14 16 16 15 14 14 13 14 15 15 16 18
42 40 43 42 44 38 32 29 29 33 36 35 38 36 38 25 22 18 17 13 7 5 11 10 11 7 4 7 9 8 6 5 7 8 10 12 15 17 18 18 17 15 15 15 14 14 16 18 19
41 45 42 47 45 36 32 33 35 36 38 37 47 43 38 28 25 21 22 19 2 7 13 11 14 11 8 7 8 8 6 6 7 10 12 13 15 17 17 18 17 17 15 15 17 18 18 20 20
47 50 48 48 44 36 37 38 38 37 41 42 49 48 41 35 30 26 29 17 7 14 19 18 20 14 12 8 6 6 5 6 9 11 14 16 17 18 18 18 19 21 20 19 19 19 20 21 23
49 48 55 46 40 36 38 40 41 40 44 47 53 46 39 34 33 31 29 9 14 19 22 24 25 21 14 14 10 8 7 8 12 15 16 16 18 18 20 20 20 21 20 20 19 20 22 23 23
46 51 50 54 29 35 43 42 43 44 47 51 54 49 39 40 36 35 26 17 20 22 24 24 25 24 13 18 15 12 10 10 11 14 15 16 16 17 20 22 22 21 21 21 23 22 21 23 24
49 49 51 50 37 37 45 45 43 48 51 51 54 52 45 45 42 39 30 26 27 25 26 25 23 20 20 21 19 14 12 11 12 13 15 15 16 18 21 24 25 25 23 22 25 26 26 25 26
54 55 54 50 44 35 46 47 44 48 49 50 52 53 51 46 42 40 34 30 28 26 25 24 24 23 23 23 20 19 14 12 10 11 12 13 14 17 21 23 25 25 27 27 28 30 30 30 31
47 51 55 51 45 52 44 51 40 46 48 49 49 49 48 46 44 41 35 32 29 31 29 28 27 24 25 25 25 23 20 14 10 8 9 10 11 14 17 20 22 24 25 27 29 30 33 34 35
43 44 39 49 50 49 56 56 41 42 48 52 50 48 47 46 46 45 41 34 33 29 32 29 30 31 31 30 29 28 23 19 15 12 10 10 12 15 17 20 20 23 24 27 30 32 33 35 37
45 43 38 37 40 45 51 50 47 44 43 51 47 48 47 51 48 48 46 33 35 32 34 35 33 30 26 24 27 28 26 22 21 17 14 12 11 14 17 20 21 24 25 28 31 33 35 36 39
48 46 44 43 42 39 37 50 56 49 43 47 48 47 50 47 48 49 48 38 34 34 34 34 32 31 33 32 27 30 30 28 25 20 17 15 16 16 17 20 23 24 27 29 31 33 35 38 39
45 48 49 48 46 43 39 43 52 58 45 44 47 50 51 52 53 46 46 50 44 32 35 31 35 34 34 31 33 29 32 23 24 20 21 15 12 15 19 20 23 25 28 30 32 34 36 39 40
41 44 46 48 46 45 41 42 40 47 58 46 48 50 52 52 54 54 49 49 50 37 39 42 40 37 35 26 29 23 28 33 27 25 29 17 15 17 20 21 23 26 30 31 33 35 37 39 42
39 40 42 42 44 47 44 44 46 44 54 63 54 49 52 54 57 54 55 56 53 44 43 46 30 27 28 28 32 35 28 32 41 46 38 17 14 18 26 26 25 28 34 36 37 38 40 41 44
37 38 39 40 41 42 45 44 47 48 51 53 63 60 54 56 58 61 56 60 59 48 49 43 38 38 39 38 40 40 37 31 46 38 41 19 19 20 30 32 30 32 36 38 41 40 43 43 45
37 38 38 40 42 42 42 45 46 47 49 52 51 70 64 57 61 58 60 59 61 60 54 52 49 50 46 43 43 41 36 40 44 38 44 23 28 28 33 35 30 35 38 42 44 43 46 45 45
40 40 41 41 43 42 42 45 46 46 47 49 53 58 76 68 60 60 62 60 61 62 64 63 58 57 53 48 50 49 44 39 40 37 33 28 29 31 36 38 36 38 44 46 48 48 48 45 44
37 39 41 43 45 46 46 46 47 46 48 49 51 53 63 74 73 62 62 61 60 61 63 62 62 54 53 56 54 52 47 45 43 37 36 31 35 35 42 44 40 43 46 49 49 52 50 45 44
33 35 37 38 41 44 46 47 48 49 49 50 52 54 55 60 67 75 70 63 63 60 60 62 64 66 62 63 61 58 57 51 48 41 35 33 37 43 48 45 41 43 49 52 54 54 49 43 41
28 30 32 35 36 40 45 47 46 49 50 53 55 55 57 59 61 63 77 71 70 67 66 62 62 63 64 67 63 63 64 56 50 45 38 37 41 48 51 47 42 44 51 49 53 51 41 36 38
28 31 34 36 38 40 44 50 44 50 53 54 56 59 59 59 62 62 63 68 80 75 75 72 68 68 67 64 63 61 60 60 52 46 44 46 49 51 50 43 43 44 46 46 46 42 36 35 35
30 31 34 38 42 46 45 51 48 48 52 56 59 60 61 63 64 64 64 65 65 64 71 77 76 74 73 71 68 66 69 70 56 51 49 49 52 54 47 36 38 43 41 45 43 37 35 35 32
28 29 31 37 42 48 48 52 52 52 55 57 58 62 65 66 65 67 67 67 66 68 68 71 74 72 72 74 74 66 62 61 50 47 47 49 50 48 36 37 41 39 41 43 38 34 33 34 33
23 25 32 35 32 34 38 48 55 58 60 62 62 62 65 70 71 71 71 71 70 70 69 71 74 73 73 75 76 65 58 60 51 55 52 48 47 47 39 41 42 39 41 41 34 33 32 33 33
20 27 30 33 34 28 32 34 23 35 48 53 64 66 66 67 72 74 74 72 71 71 70 71 70 71 71 67 62 60 56 54 53 52 50 48 49 45 41 40 41 41 41 36 33 31 32 33 31
26 29 30 33 34 37 34 37 30 29 33 38 37 48 54 63 67 72 75 74 71 70 72 71 70 69 66 66 61 58 56 53 47 49 52 52 50 46 40 40 40 41 38 33 30 29 32 31 32
25 26 32 34 37 41 40 39 36 29 32 36 36 34 31 32 45 66 71 74 74 71 69 69 69 66 63 61 57 56 57 54 48 47 50 49 49 40 41 39 39 37 33 30 28 29 31 32 32
23 27 29 35 40 44 48 34 39 31 31 36 39 41 39 38 38 47 64 71 73 72 69 67 64 62 60 59 58 56 56 52 50 49 47 46 43 42 39 37 38 34 32 28 28 30 32 31 30
22 25 30 32 36 42 46 32 32 29 32 32 35 38 40 41 36 40 47 61 69 71 70 67 65 61 58 57 57 55 55 55 54 48 45 42 39 38 35 35 32 31 27 29 30 31 31 29 30
Wind_Direction
234 230 221 215 219 213 203 203 205 208 209 200 207 210 215 209 210 179 211 205 148 28 337 280 291 327 11 357 7 358 358 354 4 9 357 354 349 349 349 343 345 342 344 344 345 341 336 332 331
237 233 228 221 220 210 204 203 206 207 210 211 207 212 219 206 214 211 217 196 154 337 318 274 284 274 306 335 358 358 360 16 15 11 5 355 341 343 343 339 340 340 341 344 346 349 341 337 334
233 239 231 225 222 209 204 211 212 209 212 212 208 211 219 208 215 218 229 211 175 299 286 268 281 273 287 318 351 2 7 356 357 351 355 353 350 344 346 341 343 344 348 351 350 349 345 337 336
234 238 233 228 224 211 209 217 215 208 213 217 210 216 215 215 213 223 230 221 265 273 275 278 282 268 273 294 313 355 347 329 324 332 340 349 358 357 351 353 350 343 343 349 349 347 347 341 336
233 237 231 231 228 216 217 216 216 207 210 214 210 214 214 218 220 224 226 233 256 267 270 271 274 273 263 276 289 305 326 325 320 316 324 336 339 347 348 351 350 348 348 345 345 346 346 342 337
234 234 236 229 232 216 218 217 215 207 207 210 213 212 212 218 217 224 229 235 238 241 249 255 270 272 265 265 276 286 299 314 320 330 334 333 336 350 355 355 359 359 360 355 347 345 345 341 337
234 229 230 232 221 212 214 217 216 208 206 215 217 211 217 219 217 216 220 228 239 248 252 256 262 257 253 251 262 275 285 299 308 321 326 333 339 345 354 357 358 360 359 359 354 348 345 343 337
238 233 231 233 213 208 211 219 220 209 207 216 218 214 218 222 223 222 215 225 235 249 253 256 255 243 242 250 260 266 280 294 313 325 318 323 332 342 353 353 353 357 356 355 354 350 345 341 336
240 237 234 231 222 217 209 206 221 217 208 215 220 220 221 221 222 221 218 224 229 241 246 246 242 243 251 260 265 269 272 279 284 306 319 323 330 343 342 350 351 352 355 355 352 348 346 343 336
244 238 239 233 231 221 218 204 211 219 214 212 219 222 221 222 222 227 228 226 228 231 243 245 240 240 249 258 267 272 271 267 264 274 298 321 328 334 338 335 341 339 347 348 347 344 342 343 338
241 249 247 236 233 236 230 217 203 211 211 215 219 223 223 223 223 229 232 229 235 241 239 242 231 230 240 250 260 265 271 265 262 261 276 296 316 326 326 326 326 328 336 340 340 340 337 339 339
237 237 240 241 245 242 238 216 210 209 205 213 217 219 227 225 227 228 234 232 229 233 228 233 231 232 240 242 254 263 270 261 257 253 272 287 301 312 319 321 318 323 326 330 332 331 332 331 334
242 244 244 245 245 248 243 234 223 208 209 208 220 223 226 231 232 232 232 235 223 226 231 224 231 232 238 241 249 250 273 244 238 249 259 270 299 310 307 307 312 316 317 320 322 324 325 325 327
238 239 242 244 244 247 243 241 233 215 215 211 215 222 225 228 233 232 232 234 238 237 236 228 231 235 240 245 241 255 274 252 236 241 241 261 288 309 310 309 313 312 310 311 315 314 316 318 320
242 242 243 243 240 238 237 234 234 232 225 220 211 222 224 226 228 231 230 229 236 244 238 227 239 231 242 248 246 258 261 276 254 242 251 265 279 304 308 306 309 312 309 308 307 309 309 311 315
242 244 245 246 246 244 240 232 232 232 235 229 216 213 223 226 229 229 232 235 237 239 243 235 233 238 251 263 265 262 246 256 264 245 275 284 279 280 296 299 309 308 306 303 302 306 306 310 308
246 247 247 247 248 245 242 237 233 236 234 235 237 220 216 223 227 231 234 237 240 241 239 244 238 252 260 257 258 246 241 256 264 272 285 291 290 280 285 296 305 303 307 304 299 303 305 307 303
251 252 252 251 251 250 248 242 240 239 240 238 238 232 224 221 223 230 234 236 238 241 246 247 248 252 259 250 251 254 259 260 272 264 277 282 277 272 275 295 299 304 304 299 295 302 304 301 298
247 249 251 253 255 254 251 248 248 243 241 239 239 239 235 229 226 224 231 235 235 238 241 246 249 246 253 259 260 256 259 260 261 268 267 274 274 279 282 290 300 296 296 287 294 299 300 297 295
251 252 253 252 253 255 254 249 248 248 244 243 241 239 238 243 239 228 227 232 236 236 240 244 245 249 252 253 256 257 258 257 259 256 261 271 275 281 281 287 292 295 290 288 290 296 295 292 292
259 259 259 259 257 259 259 254 253 253 248 245 243 241 239 238 242 244 228 230 232 238 238 243 246 248 247 251 255 256 259 261 261 260 265 273 272 272 277 284 285 290 286 288 287 290 292 288 294
264 266 268 269 269 266 266 265 254 254 252 250 245 243 241 238 239 239 242 242 236 230 235 241 245 250 253 253 256 257 259 263 264 262 267 268 267 273 281 286 279 281 281 286 283 286 287 291 296
275 278 279 281 281 278 273 269 262 255 254 252 248 246 244 241 238 237 238 238 244 243 241 241 243 246 253 257 255 256 262 267 268 265 268 263 272 277 283 281 276 276 281 278 281 285 291 293 294
273 274 279 282 282 280 278 275 267 266 262 253 249 247 245 244 241 238 236 236 236 238 240 242 241 243 246 251 257 261 263 264 266 270 271 273 277 279 280 278 276 278 275 275 284 289 291 291 292
279 293 292 290 294 297 290 282 274 269 263 259 253 248 244 243 241 239 236 234 234 234 237 238 241 244 249 252 255 258 259 264 265 267 273 275 275 277 275 272 275 275 273 277 285 285 287 285 290
295 292 295 298 299 296 294 300 302 279 274 267 258 253 247 242 241 240 239 235 232 234 234 234 236 239 244 248 248 251 253 256 259 263 271 272 272 270 266 273 272 271 274 280 281 281 281 285 290
282 281 286 292 295 297 294 295 292 281 286 289 269 261 258 248 240 239 239 237 235 232 234 234 236 235 237 241 244 247 252 255 256 259 263 268 268 264 270 270 273 273 275 275 274 276 279 284 285
279 286 294 297 293 293 295 297 295 282 277 276 270 271 266 260 250 238 236 236 235 233 232 234 235 238 239 242 242 243 247 250 253 255 256 259 260 265 263 265 267 267 267 269 273 276 279 282 285
286 293 293 291 292 295 294 306 303 301 289 275 266 263 256 259 261 246 236 234 234 233 231 232 233 234 236 239 241 243 247 252 254 254 254 255 256 257 260 262 262 264 265 270 271 275 278 279 282
282 292 291 288 293 288 286 300 301 298 293 285 274 263 258 252 264 265 250 233 232 232 230 229 231 231 230 233 236 240 244 248 250 251 251 252 251 255 257 259 260 262 265 266 272 273 277 277 276